Location: Earls Croome
(52.0667°N, 2.2000°W)
Time: 23:16:56
(UTC+00:00)

CZ-2C R/B - Pass Details

Date: 17 November 2019
Orbit: 667 x 785 km, 98.1° (Epoch: 05 December)

Event Time Altitude Azimuth Distance (km) Brightness Sun altitude
Rises 04:42:41 0° 15° (NNE) 3,196 5.9 -25.6°
Reaches altitude 10° 04:45:02 10° 16° (NNE) 2,250 5.1 -25.3°
Maximum altitude 04:49:59 83° 104° (ESE) 729 2.3 -24.5°
Enters shadow 04:53:03 22° 191° (SSW) 1,504 3.9 -24.1°
